275  
ASUS41 KALY 171910  
RWRALY  
 
NEW YORK STATE HOURLY WEATHER ROUNDUP  
NATIONAL WEATHER SERVICE ALBANY NY  
200 PM EST SUN FEB 17 2019  
 
NOTE: "FAIR" INDICATES FEW OR NO CLOUDS BELOW 12,000 FEET WITH NO  
SIGNIFICANT WEATHER AND/OR NO S TO VISIBILITY
.  
 
NYZ032-033-038>043-046>054-057>066-NYZ062>081-082-084-172000-  
EAST  
 
 
CITY SKY/WX TMP DP RH WIND PRES REMARKS
 
ALBANY PTSUNNY 30 8 39 CALM 30.13F  
GLENS FALLS FAIR 24 7 48 E5 30.13S WCI 18  
POUGHKEEPSIE FAIR 34 13 41 CALM 30.09F  
NEWBURGH MOSUNNY 34 18 51 CALM 30.11S  
MONTGOMERY FAIR 34 15 46 S3 30.06F  
WHITE PLAINS FAIR 34 13 41 VRB7 30.08F WCI 28  
ISLIP PTSUNNY 33 18 53 S7 30.12F WCI 27  
NEW YORK CITY PTSUNNY 36 13 38 S3 30.11F  
CENTRAL PARK FAIR 36 13 38 MISG 30.13F  

 
 
NYZ005>009-017-018-044>046-055-056-172000-  
CENTRAL  
 
 
CITY SKY/WX TMP DP RH WIND PRES REMARKS
 
FULTON FAIR 25 7 46 S3 30.08F  
SYRACUSE FAIR 27 10 49 NE5 30.07F WCI 22  
ROME FAIR 26 8 46 CALM 30.09F  
ELMIRA FAIR 33 15 47 E8 29.99F WCI 26  
BINGHAMTON FAIR 28 14 55 SE7 29.96F WCI 21  
MONTICELLO FAIR 34 12 40 SW6 30.00F WCI 29  

 
 
NYZ026>034-041>043-087-172000-  
NORTH  
 
 
CITY SKY/WX TMP DP RH WIND PRES REMARKS
 
WATERTOWN FAIR 20 5 52 NE9 30.11F WCI 9  
FORT DRUM NOT AVBL  
OGDENSBURG FAIR 16 1 53 N6 30.13F WCI 7  
MASSENA FAIR 17 3 54 CALM 30.18S  
SARANAC LAKE FAIR 23 2 40 CALM 29.98S  
PLATTSBURGH FAIR 14 2 58 NE6 30.16F WCI 5  

 
 
NYZ001>004-010>016-019>021-085-172000-  
WEST  
 
 
CITY SKY/WX TMP DP RH WIND PRES REMARKS
 
NIAGARA FALLS FAIR 25 15 66 E18 30.00F WCI 11  
BUFFALO PTSUNNY 26 15 63 NE16 29.99F WCI 14  
DUNKIRK CLOUDY 28 16 60 NE13 29.94F WCI 17  
JAMESTOWN CLOUDY 29 15 56 E9 29.84F WCI 20  
WELLSVILLE PTSUNNY 29 16 58 MISG 29.87F  
ROCHESTER PTSUNNY 26 13 57 E12 30.05F WCI 16  
PENN YAN FAIR 24 13 62 NE6 30.02F WCI 17  

 
 
KEY  
WCI = WIND CHILL INDEX  
VSB = VISIBILITY  
HX = HEAT INDEX  

 
 
 
CLICK HERE TO GO TO PREVIOUS BULLETINS.

The Nexlab NY Page
The Nexlab VT Page
The Nexlab MA Page
The Nexlab CT Page Main Text Page